When you browse on this site, cookies collect data to enhance your experience and personalize the content and advertising you see.
Visit our Privacy Policy to learn more. By continuing to use the site, you agree to this use of cookies and data.
  • En España
  • Lista de países
  • Para 7 días
  • Temperatura del agua
  • Mapa Satelital
  • El tiempo en el mapa
  • Informadores
  • user-avatar
    Iniciar sesión

    Tiempo cada hora Barybino

    Hoy, 25 Junio, Martes

    Tiempo Temperatura Precipitaciones Viento Presión Humedad
    00:00 +16°C° 0 mm 3 mps 750 mmHg 71%
    01:00 +14°C° 0 mm 3 mps 750 mmHg 73%
    02:00 +14°C° 0 mm 3 mps 751 mmHg 74%
    03:00 +13°C° 0 mm 3 mps 751 mmHg 77%
    04:00 +13°C° 0 mm 3 mps 751 mmHg 77%
    05:00 +15°C° 0 mm 2 mps 752 mmHg 76%
    06:00 +15°C° 0 mm 2 mps 752 mmHg 76%
    07:00 +16°C° 0 mm 2 mps 752 mmHg 72%
    08:00 +18°C° 0 mm 2 mps 752 mmHg 68%
    09:00 +19°C° 0 mm 2 mps 753 mmHg 64%
    10:00 +20°C° 0 mm 3 mps 753 mmHg 60%
    11:00 +21°C° 0 mm 3 mps 753 mmHg 57%
    12:00 +22°C° 0 mm 4 mps 753 mmHg 53%
    13:00 +22°C° 0 mm 4 mps 753 mmHg 52%
    14:00 +22°C° 0 mm 4 mps 753 mmHg 51%
    15:00 +22°C° 0 mm 4 mps 753 mmHg 50%
    16:00 +22°C° 0 mm 3 mps 753 mmHg 55%
    17:00 +22°C° 0 mm 3 mps 752 mmHg 60%
    18:00 +21°C° 0 mm 2 mps 752 mmHg 64%
    19:00 +20°C° 0 mm 2 mps 752 mmHg 67%
    20:00 +18°C° 0 mm 2 mps 753 mmHg 69%
    21:00 +16°C° 0 mm 1 mps 753 mmHg 72%
    22:00 +16°C° 0 mm 1 mps 752 mmHg 72%
    23:00 +15°C° 0 mm 1 mps 752 mmHg 72%

    Mañana, 26 Junio, Miércoles

    Tiempo Temperatura Precipitaciones Viento Presión Humedad
    00:00 +15°C° 0 mm 1 mps 752 mmHg 71%
    01:00 +14°C° 0 mm 1 mps 752 mmHg 73%
    02:00 +14°C° 0 mm 1 mps 752 mmHg 74%
    03:00 +13°C° 0 mm 1 mps 753 mmHg 75%
    04:00 +14°C° 0 mm 1 mps 752 mmHg 76%
    05:00 +14°C° 0 mm 1 mps 752 mmHg 76%
    06:00 +15°C° 0 mm 1 mps 752 mmHg 77%
    07:00 +18°C° 0 mm 1 mps 752 mmHg 73%
    08:00 +18°C° 0 mm 2 mps 752 mmHg 68%
    09:00 +20°C° 0 mm 2 mps 751 mmHg 64%
    10:00 +21°C° 0 mm 2 mps 751 mmHg 61%
    11:00 +22°C° 0 mm 3 mps 751 mmHg 58%
    12:00 +24°C° 0 mm 3 mps 750 mmHg 54%
    13:00 +22°C° 0.2 mm 3 mps 750 mmHg 57%
    14:00 +22°C° 0.2 mm 3 mps 749 mmHg 59%
    15:00 +22°C° 0.2 mm 3 mps 749 mmHg 62%
    16:00 +22°C° 0.3 mm 3 mps 748 mmHg 65%
    17:00 +23°C° 0.3 mm 2 mps 748 mmHg 68%
    18:00 +23°C° 0.3 mm 2 mps 747 mmHg 71%
    19:00 +20°C° 0.1 mm 2 mps 747 mmHg 73%
    20:00 +19°C° 0.1 mm 2 mps 746 mmHg 76%
    21:00 +17°C° 0.1 mm 3 mps 746 mmHg 79%
    22:00 +17°C° 0 mm 2 mps 745 mmHg 82%
    23:00 +16°C° 0 mm 2 mps 745 mmHg 85%

    Pasado mañana, 27 Junio, Jueves

    Tiempo Temperatura Precipitaciones Viento Presión Humedad
    00:00 +16°C° 0 mm 2 mps 744 mmHg 87%
    01:00 +15°C° 0 mm 2 mps 743 mmHg 88%
    02:00 +15°C° 0 mm 2 mps 743 mmHg 88%
    03:00 +14°C° 0 mm 3 mps 742 mmHg 88%
    04:00 +14°C° 1.4 mm 3 mps 741 mmHg 90%
    05:00 +14°C° 1.4 mm 3 mps 740 mmHg 92%
    06:00 +15°C° 1.4 mm 4 mps 739 mmHg 95%
    07:00 +15°C° 2.2 mm 4 mps 738 mmHg 94%
    08:00 +17°C° 2.2 mm 4 mps 738 mmHg 93%
    09:00 +16°C° 2.2 mm 5 mps 737 mmHg 93%
    10:00 +17°C° 2 mm 5 mps 736 mmHg 93%
    11:00 +19°C° 2 mm 6 mps 735 mmHg 94%
    12:00 +18°C° 2 mm 7 mps 734 mmHg 94%
    13:00 +20°C° 1.6 mm 7 mps 733 mmHg 93%
    14:00 +20°C° 1.6 mm 7 mps 733 mmHg 91%
    15:00 +21°C° 1.6 mm 7 mps 732 mmHg 90%
    16:00 +21°C° 0.2 mm 7 mps 731 mmHg 90%
    17:00 +21°C° 0.2 mm 7 mps 731 mmHg 90%
    18:00 +21°C° 0.2 mm 7 mps 730 mmHg 90%
    19:00 +20°C° 0.2 mm 6 mps 730 mmHg 91%
    20:00 +20°C° 0.2 mm 6 mps 730 mmHg 92%
    21:00 +19°C° 0.2 mm 5 mps 729 mmHg 92%
    22:00 +17°C° 0 mm 5 mps 729 mmHg 92%
    23:00 +15°C° 0 mm 5 mps 729 mmHg 92%

    28 Junio, Viernes

    Tiempo Temperatura Precipitaciones Viento Presión Humedad
    00:00 +14°C° 0 mm 5 mps 729 mmHg 92%
    01:00 +13°C° 0 mm 5 mps 729 mmHg 93%
    02:00 +13°C° 0 mm 5 mps 729 mmHg 93%
    03:00 +12°C° 0 mm 5 mps 729 mmHg 94%
    04:00 +12°C° 0 mm 5 mps 729 mmHg 93%
    05:00 +11°C° 0 mm 6 mps 729 mmHg 91%
    06:00 +13°C° 0 mm 6 mps 729 mmHg 90%
    07:00 +13°C° 0.1 mm 6 mps 728 mmHg 90%
    08:00 +11°C° 0.1 mm 6 mps 728 mmHg 89%
    09:00 +11°C° 0.1 mm 6 mps 728 mmHg 89%
    10:00 +12°C° 0.2 mm 7 mps 728 mmHg 87%
    11:00 +12°C° 0.2 mm 7 mps 728 mmHg 85%
    12:00 +14°C° 0.2 mm 7 mps 728 mmHg 84%
    13:00 +12°C° 0.2 mm 7 mps 728 mmHg 86%
    14:00 +12°C° 0.2 mm 7 mps 728 mmHg 88%
    15:00 +11°C° 0.2 mm 7 mps 728 mmHg 90%
    16:00 +11°C° 0.2 mm 7 mps 728 mmHg 91%
    17:00 +11°C° 0.2 mm 7 mps 728 mmHg 91%
    18:00 +11°C° 0.2 mm 7 mps 728 mmHg 92%
    19:00 +10°C° 0.3 mm 6 mps 728 mmHg 92%
    20:00 +10°C° 0.3 mm 6 mps 729 mmHg 93%
    21:00 +10°C° 0.3 mm 6 mps 729 mmHg 93%
    22:00 +10°C° 0.3 mm 6 mps 729 mmHg 93%
    23:00 +10°C° 0.3 mm 6 mps 729 mmHg 93%

    29 Junio, Sábado

    Tiempo Temperatura Precipitaciones Viento Presión Humedad
    00:00 +10°C° 0.3 mm 6 mps 729 mmHg 94%
    01:00 +10°C° 0 mm 6 mps 729 mmHg 93%
    02:00 +9°C° 0 mm 6 mps 730 mmHg 92%
    03:00 +9°C° 0 mm 6 mps 730 mmHg 91%
    04:00 +8°C° 0 mm 6 mps 730 mmHg 90%
    05:00 +8°C° 0 mm 6 mps 730 mmHg 89%
    06:00 +8°C° 0 mm 7 mps 730 mmHg 87%
    07:00 +8°C° 0 mm 7 mps 731 mmHg 85%
    08:00 +9°C° 0 mm 6 mps 731 mmHg 82%
    09:00 +9°C° 0 mm 6 mps 731 mmHg 79%
    10:00 +9°C° 0.1 mm 7 mps 732 mmHg 81%
    11:00 +8°C° 0.1 mm 7 mps 732 mmHg 82%
    12:00 +8°C° 0.1 mm 7 mps 733 mmHg 84%
    13:00 +8°C° 0.1 mm 7 mps 733 mmHg 85%
    14:00 +8°C° 0.1 mm 7 mps 734 mmHg 85%
    15:00 +8°C° 0.1 mm 7 mps 734 mmHg 85%
    16:00 +7°C° 0.2 mm 6 mps 734 mmHg 87%
    17:00 +7°C° 0.2 mm 6 mps 735 mmHg 89%
    18:00 +6°C° 0.2 mm 5 mps 735 mmHg 91%
    19:00 +7°C° 0.4 mm 5 mps 735 mmHg 92%
    20:00 +7°C° 0.4 mm 5 mps 735 mmHg 93%
    21:00 +7°C° 0.4 mm 4 mps 735 mmHg 95%
    22:00 +7°C° 0.7 mm 5 mps 735 mmHg 94%
    23:00 +7°C° 0.7 mm 5 mps 735 mmHg 94%

    30 Junio, Domingo

    Tiempo Temperatura Precipitaciones Viento Presión Humedad
    00:00 +7°C° 0.7 mm 6 mps 735 mmHg 93%
    01:00 +7°C° 0.2 mm 5 mps 736 mmHg 93%
    02:00 +7°C° 0.2 mm 4 mps 736 mmHg 94%
    03:00 +8°C° 0.2 mm 3 mps 736 mmHg 94%
    04:00 +7°C° 0 mm 4 mps 736 mmHg 92%
    05:00 +7°C° 0 mm 4 mps 736 mmHg 91%
    06:00 +7°C° 0 mm 4 mps 737 mmHg 89%
    07:00 +8°C° 0 mm 4 mps 737 mmHg 85%
    08:00 +9°C° 0 mm 5 mps 737 mmHg 80%
    09:00 +10°C° 0 mm 5 mps 738 mmHg 76%
    10:00 +13°C° 0 mm 5 mps 738 mmHg 69%
    11:00 +14°C° 0 mm 5 mps 738 mmHg 63%
    12:00 +16°C° 0 mm 6 mps 739 mmHg 56%
    13:00 +16°C° 0.1 mm 5 mps 739 mmHg 58%
    14:00 +16°C° 0.1 mm 5 mps 739 mmHg 59%
    15:00 +16°C° 0.1 mm 5 mps 740 mmHg 60%
    16:00 +17°C° 0.1 mm 4 mps 740 mmHg 62%
    17:00 +17°C° 0.1 mm 4 mps 740 mmHg 64%
    18:00 +17°C° 0.1 mm 3 mps 740 mmHg 67%
    19:00 +14°C° 0 mm 3 mps 741 mmHg 69%
    20:00 +13°C° 0 mm 3 mps 741 mmHg 72%
    21:00 +13°C° 0 mm 2 mps 741 mmHg 75%
    22:00 +12°C° 0 mm 2 mps 741 mmHg 78%
    23:00 +10°C° 0 mm 2 mps 741 mmHg 80%
    Mostrar más